GSAT0201 (GALILEO 5) (40128 NORAD) Tracking and Keplerian Element Data

This shows tracking and keplerian element data for the satellite.

Feedback or suggestion? Click here.




ElementValue
Catalog40128
NameGSAT0201 (GALILEO 5)
Epoch Orbit5308
Epoch Day269.00216722
Epoch Year2022
RAAN328.2763
Inclination50.2141
Eccentricity0.1620466
Argument of Perigee127.706
Mean Anonmoly248.1344
Mean Motion1.85519204
Decay Rate-5.8E-07
L11 40128U 14050A 22269.00216722 -.00000058 00000+0 00000+0 0 9998
L22 40128 50.2141 328.2763 1620466 127.7060 248.1344 1.85519204 53086

Live tracking and technical data element details for GSAT0201 (GALILEO 5) (NORAD 40128). GSAT0201 (GALILEO 5) can be tracked NOW for your location showing map with azimuth and elevation plus other details from your city location.

Track the satellite on the map from your city or location and see movement details for azimuth, elevation, latitude, longitude, range, height, and movement on the map or in text.







IsCatalogInMostPopularTable: catalog: 40128, numindb: 618
Update: records affected: 1



GetName: 40128 GSAT0201 (GALILEO 5)

Hit Count: updated at: Wed, 28 Sep 2022 23:05:25 GMT